TimeCDT,TemperatureF,Dew PointF,Humidity,Sea Level PressureIn,VisibilityMPH,Wind Direction,Wind SpeedMPH,Gust SpeedMPH,PrecipitationIn,Events,Conditions,WindDirDegrees,DateUTC
12:15 AM,66.0,64.0,93,29.77,3.0,SE,9.2,-,0.09,Rain,Heavy Rain,130,2012-10-14 05:15:00
12:35 AM,66.2,64.2,93,29.75,4.0,SE,10.4,-,0.15,Rain,Rain,140,2012-10-14 05:35:00
12:55 AM,66.0,63.9,93,29.73,3.0,SSE,10.4,-,0.19,Rain,Light Rain,150,2012-10-14 05:55:00
1:15 AM,66.2,64.4,94,29.73,2.5,South,13.8,18.4,0.07,Rain,Rain,190,2012-10-14 06:15:00
1:35 AM,67.1,62.4,85,29.71,10.0,SSW,6.9,-,0.07,,Drizzle,210,2012-10-14 06:35:00
1:55 AM,66.0,61.9,86,29.70,10.0,South,6.9,-,0.07,,Light Drizzle,170,2012-10-14 06:55:00
2:15 AM,65.7,61.9,88,29.71,10.0,SSW,9.2,-,N/A,,Light Drizzle,200,2012-10-14 07:15:00
2:35 AM,65.5,61.7,88,29.72,10.0,SSW,8.1,-,0.01,Rain,Light Rain,200,2012-10-14 07:35:00
2:55 AM,64.9,62.2,91,29.72,7.0,South,10.4,16.1,0.02,Rain,Light Rain,190,2012-10-14 07:55:00
3:15 AM,63.9,61.2,91,29.71,7.0,South,16.1,24.2,0.02,Rain,Rain,180,2012-10-14 08:15:00
3:35 AM,63.5,60.8,91,29.69,10.0,South,17.3,23.0,0.03,Rain,Rain,170,2012-10-14 08:35:00
3:55 AM,63.5,60.8,91,29.66,10.0,SSE,12.7,19.6,0.04,Rain,Light Rain,160,2012-10-14 08:55:00
4:15 AM,63.5,60.8,91,29.62,10.0,SSE,15.0,20.7,0.01,Rain,Rain,150,2012-10-14 09:15:00
4:35 AM,63.1,60.8,92,29.59,10.0,SE,12.7,-,0.01,,Light Drizzle,140,2012-10-14 09:35:00
4:55 AM,63.1,60.8,92,29.61,10.0,South,12.7,19.6,0.01,,Scattered Clouds,170,2012-10-14 09:55:00
5:15 AM,63.5,61.0,91,29.63,10.0,South,13.8,-,N/A,,Mostly Cloudy,180,2012-10-14 10:15:00
5:35 AM,63.5,61.0,91,29.63,10.0,South,16.1,20.7,N/A,,Mostly Cloudy,190,2012-10-14 10:35:00
5:55 AM,64.4,60.8,88,29.64,10.0,South,16.1,21.9,N/A,,Overcast,170,2012-10-14 10:55:00
6:15 AM,63.7,61.0,91,29.64,10.0,South,15.0,19.6,N/A,,Overcast,170,2012-10-14 11:15:00
6:35 AM,63.7,60.8,90,29.63,10.0,South,13.8,18.4,N/A,,Overcast,170,2012-10-14 11:35:00
6:55 AM,64.2,60.8,89,29.63,10.0,South,18.4,24.2,N/A,,Overcast,180,2012-10-14 11:55:00
7:15 AM,64.2,60.8,89,29.61,10.0,South,16.1,23.0,N/A,,Overcast,170,2012-10-14 12:15:00
7:35 AM,64.0,61.0,90,29.62,10.0,South,16.1,26.5,N/A,,Overcast,170,2012-10-14 12:35:00
7:55 AM,63.9,61.2,91,29.63,4.0,South,15.0,25.3,0.01,Rain,Rain,180,2012-10-14 12:55:00
8:15 AM,63.9,61.2,91,29.62,10.0,South,15.0,23.0,N/A,,Overcast,190,2012-10-14 13:15:00
8:35 AM,64.4,61.3,90,29.63,10.0,South,15.0,23.0,N/A,,Overcast,190,2012-10-14 13:35:00
8:55 AM,65.3,61.3,87,29.63,10.0,South,16.1,21.9,N/A,,Overcast,190,2012-10-14 13:55:00
9:15 AM,65.3,61.3,87,29.62,10.0,South,15.0,20.7,N/A,Rain,Rain,190,2012-10-14 14:15:00
9:35 AM,65.8,61.3,85,29.62,10.0,South,17.3,24.2,N/A,,Overcast,190,2012-10-14 14:35:00
9:55 AM,67.1,61.7,83,29.61,10.0,SSW,15.0,27.6,N/A,,Mostly Cloudy,200,2012-10-14 14:55:00
10:15 AM,67.1,60.8,80,29.63,10.0,SSW,20.7,26.5,N/A,,Mostly Cloudy,210,2012-10-14 15:15:00
10:35 AM,67.1,60.4,79,29.63,10.0,SSW,18.4,23.0,N/A,,Overcast,210,2012-10-14 15:35:00
10:55 AM,67.6,60.8,79,29.63,10.0,SSW,13.8,21.9,N/A,,Overcast,210,2012-10-14 15:55:00
11:15 AM,68.4,60.8,77,29.63,10.0,SSW,13.8,25.3,N/A,,Overcast,200,2012-10-14 16:15:00
11:35 AM,68.9,60.8,75,29.63,10.0,SSW,16.1,27.6,N/A,,Mostly Cloudy,210,2012-10-14 16:35:00
11:55 AM,70.0,60.4,72,29.63,10.0,SSW,20.7,28.8,N/A,,Scattered Clouds,210,2012-10-14 16:55:00
12:15 PM,70.3,59.9,69,29.63,10.0,SSW,16.1,21.9,N/A,,Mostly Cloudy,210,2012-10-14 17:15:00
12:35 PM,68.4,58.8,71,29.64,10.0,WSW,23.0,28.8,N/A,,Overcast,240,2012-10-14 17:35:00
12:55 PM,70.0,56.5,62,29.64,10.0,WSW,19.6,32.2,N/A,,Mostly Cloudy,250,2012-10-14 17:55:00
1:15 PM,69.1,56.3,64,29.66,10.0,WSW,23.0,32.2,N/A,,Scattered Clouds,250,2012-10-14 18:15:00
1:35 PM,64.8,58.8,81,29.67,4.0,WSW,20.7,32.2,N/A,Rain,Rain,250,2012-10-14 18:35:00
1:55 PM,64.6,59.5,84,29.68,10.0,West,19.6,25.3,N/A,,Overcast,260,2012-10-14 18:55:00
2:15 PM,63.9,57.7,80,29.70,10.0,West,18.4,29.9,N/A,,Overcast,280,2012-10-14 19:15:00
2:35 PM,63.9,56.3,76,29.72,10.0,West,19.6,26.5,N/A,,Overcast,280,2012-10-14 19:35:00
2:55 PM,63.5,55.9,76,29.73,10.0,West,15.0,28.8,N/A,,Overcast,280,2012-10-14 19:55:00
3:15 PM,61.9,55.4,79,29.75,10.0,West,19.6,29.9,N/A,,Overcast,260,2012-10-14 20:15:00
3:35 PM,59.9,53.4,79,29.77,10.0,West,19.6,25.3,N/A,,Overcast,270,2012-10-14 20:35:00
3:55 PM,59.9,51.6,74,29.78,10.0,WNW,15.0,24.2,N/A,,Overcast,290,2012-10-14 20:55:00
4:15 PM,61.2,52.0,72,29.78,10.0,WNW,15.0,21.9,N/A,,Overcast,290,2012-10-14 21:15:00
4:35 PM,62.1,52.0,70,29.80,10.0,West,17.3,23.0,N/A,,Mostly Cloudy,270,2012-10-14 21:35:00
4:55 PM,62.1,49.3,63,29.80,10.0,WNW,18.4,27.6,N/A,,Mostly Cloudy,290,2012-10-14 21:55:00
5:15 PM,61.9,49.6,64,29.81,10.0,WNW,15.0,20.7,N/A,,Scattered Clouds,300,2012-10-14 22:15:00
5:35 PM,61.9,49.6,64,29.82,10.0,WNW,12.7,19.6,N/A,,Scattered Clouds,290,2012-10-14 22:35:00
5:55 PM,61.0,50.2,68,29.83,10.0,WNW,8.1,-,N/A,,Scattered Clouds,300,2012-10-14 22:55:00
6:15 PM,60.1,50.9,72,29.84,10.0,NW,5.8,-,N/A,,Mostly Cloudy,310,2012-10-14 23:15:00
6:35 PM,58.6,51.1,76,29.86,10.0,NW,4.6,-,N/A,,Mostly Cloudy,320,2012-10-14 23:35:00
6:55 PM,58.3,50.9,76,29.87,10.0,WNW,5.8,-,N/A,,Mostly Cloudy,300,2012-10-14 23:55:00
7:15 PM,59.4,49.1,69,29.88,10.0,NW,10.4,16.1,N/A,,Mostly Cloudy,310,2012-10-15 00:15:00
7:35 PM,59.0,49.6,71,29.89,10.0,NW,9.2,-,N/A,,Overcast,310,2012-10-15 00:35:00
7:55 PM,57.4,50.4,77,29.89,10.0,NW,6.9,-,N/A,,Overcast,310,2012-10-15 00:55:00
8:15 PM,57.4,50.2,77,29.90,10.0,WNW,5.8,-,N/A,,Overcast,300,2012-10-15 01:15:00
8:35 PM,56.7,49.6,77,29.90,10.0,WNW,3.5,-,N/A,,Overcast,300,2012-10-15 01:35:00
8:55 PM,56.5,47.8,73,29.91,10.0,West,4.6,-,N/A,,Scattered Clouds,280,2012-10-15 01:55:00
9:15 PM,56.3,47.3,72,29.91,10.0,WNW,3.5,-,N/A,,Clear,290,2012-10-15 02:15:00
9:35 PM,55.4,47.3,74,29.92,10.0,West,3.5,-,N/A,,Scattered Clouds,280,2012-10-15 02:35:00
9:55 PM,54.7,47.3,76,29.92,10.0,Calm,Calm,-,N/A,,Scattered Clouds,0,2012-10-15 02:55:00
10:15 PM,54.0,47.3,78,29.93,10.0,Calm,Calm,-,N/A,,Clear,0,2012-10-15 03:15:00
10:35 PM,51.8,47.3,85,29.93,10.0,Calm,Calm,-,N/A,,Clear,0,2012-10-15 03:35:00
10:55 PM,52.7,47.5,82,29.94,10.0,SW,3.5,-,N/A,,Clear,230,2012-10-15 03:55:00
11:15 PM,52.7,47.3,82,29.94,10.0,WSW,3.5,-,N/A,,Clear,240,2012-10-15 04:15:00
11:35 PM,53.1,47.1,80,29.94,10.0,WSW,3.5,-,N/A,,Clear,250,2012-10-15 04:35:00
11:55 PM,53.6,46.4,77,29.94,10.0,WSW,4.6,-,N/A,,Clear,250,2012-10-15 04:55:00